Home   Weather   Appleton   Past weeks

Flag for USA Past Weather in Appleton, Wisconsin, USA — Yesterday and Last 2 Weeks

Now
30 °F

Overcast.


Feels Like: 23 °F
Forecast: 27 / 33 °F
Wind: 7 mph from West

Location: Appleton / Outagamie

Current Time: Dec 3, 2016 at 7:55:43 am

Latest Report: Dec 3, 2016 at 6:45 am


Visibility: 10 mi

Pressure: 30.29 "Hg

Humidity: 69%

Dew Point: 21 °F

Location of AppletonLocation

Past Weather in Appleton — Graph

°F

Appleton Temperature Yesterday

Maximum temperature yesterday: 34 °F (at 11:45 am)
Minimum temperature yesterday: 30 °F (at 5:45 am)
Average temperature yesterday: 32 °F

High & Low Weather Summary for the Past Weeks

 TemperatureHumidityPressure
High64 °F (Nov 18, 12:45 pm)100% (Nov 18, 5:45 am)30.34 "Hg (Nov 18, 5:45 am)
Low18 °F (Nov 21, 6:45 am)38% (Nov 21, 2:45 pm)29.04 "Hg (Nov 28, 10:15 pm)
Average35 °F82%29.93 "Hg
* Reported Nov 18 5:45 am — Dec 3 5:45 am, Appleton, Weather by CustomWeather, © 2016

Note: Actual official high and low records may vary slightly from our data, if they occured in-between our weather recording intervals... More about our weather records

Advertising

Appleton Weather History for the Previous 24 Hours

Scroll right to see more
 ConditionsComfort  
Time TempWeatherWind HumidityBarometerVisibility
5:45 am
Sat, Dec 3
30 °FOvercast.7 mph69%30.29 "Hg10 mi
3:55 am32 °FOvercast.6 mph69%30.26 "Hg10 mi
3:15 am32 °FOvercast.6 mph69%30.26 "Hg10 mi
2:55 am32 °FOvercast.8 mph69%30.26 "Hg10 mi
2:15 am32 °FOvercast.5 mph69%30.26 "Hg10 mi
1:55 am32 °FOvercast.6 mph69%30.26 "Hg10 mi
1:15 am32 °FOvercast.8 mph69%30.26 "Hg10 mi
12:15 am32 °FOvercast.8 mph75%30.26 "Hg10 mi
11:55 pm
Fri, Dec 2
32 °FOvercast.8 mph75%30.26 "Hg10 mi
11:35 pm32 °FOvercast.10 mph75%30.26 "Hg10 mi
11:15 pm32 °FOvercast.7 mph75%30.26 "Hg10 mi
10:55 pm32 °FOvercast.8 mph75%30.26 "Hg10 mi
9:45 pm32 °FOvercast.6 mph75%30.25 "Hg10 mi
8:45 pm32 °FOvercast.6 mph75%30.24 "Hg10 mi
7:45 pm32 °FOvercast.6 mph75%30.23 "Hg10 mi
6:45 pm32 °FOvercast.6 mph69%30.23 "Hg10 mi
4:45 pm32 °FOvercast.6 mph75%30.20 "Hg10 mi
3:45 pm34 °FOvercast.8 mph65%30.19 "Hg10 mi
2:45 pm34 °FOvercast.10 mph65%30.17 "Hg10 mi
1:45 pm34 °FOvercast.10 mph70%30.15 "Hg10 mi
12:45 pm34 °FOvercast.12 mph65%30.14 "Hg10 mi
11:45 am34 °FOvercast.9 mph65%30.13 "Hg10 mi
10:45 am32 °FOvercast.8 mph64%30.13 "Hg10 mi
9:45 am32 °FOvercast.12 mph64%30.12 "Hg10 mi
8:45 am32 °FOvercast.6 mph64%30.10 "Hg10 mi
7:45 am32 °FOvercast.7 mph69%30.07 "Hg10 mi
Weather by CustomWeather, © 2016

See weather overviewHow to use our weather pages